Regional Weather Roundup
Issued by NWS

Home | Current Version | Previous Version | Graphics & Text | Print | Product List | Glossary On
Versions: 1 2 3 4 5 6 7 8 9 10 11 12 13 14 15 16 17 18 19 20 21 22 23 24 25 26 27 28 29 30 31 32 33 34 35 36 37 38 39 40 41 42 43 44 45 46 47 48 49 50
176
ASUS43 KDTX 271301
RWRMI
MICHIGAN HOURLY REGIONAL WEATHER ROUNDUP
NATIONAL WEATHER SERVICE DETROIT/PONTIAC MI
900 AM EDT THU APR 27 2017

NOTE: "FAIR" INDICATES FEW OR NO CLOUDS BELOW 12,000 FEET WITH NO
SIGNIFICANT WEATHER AND/OR OBSTRUCTION TO VISIBILITY.

MIZ047>049-052>055-059>063-066>070-074>076-081>083-271400-
SOUTHEAST LOWER MICHIGAN

CITY           SKY/WX    TMP DP  RH WIND       PRES   REMARKS
ADRIAN         CLOUDY    65  54  67 SW16G25   29.52R
ALMA           CLOUDY    67  55  65 S15G29    29.41R
ANN ARBOR      CLOUDY    67  56  67 S13G18    29.51R
BAD AXE        PTSUNNY   66  55  66 S17G25    29.48R
CARO           SUNNY     69  56  64 S20G28    29.47R
DETROIT CITY   PTSUNNY   70  56  61 S15       29.52R
DETROIT        CLOUDY    70  53  54 SW18      29.52R
FLINT          MOSUNNY   69  55  60 S13G22    29.47R
GROSSE ILE     CLOUDY    62  56  81 S10       29.52R
HILLSDALE      PTSUNNY   64  52  63 S21G36    29.49R
HOWELL         PTSUNNY   67  51  57 S14G21    29.48S

CITY           SKY/WX    TMP DP  RH WIND       PRES   REMARKS
JACKSON        SUNNY     67  53  61 S20G30    29.47S
LAMBERTVILLE   CLOUDY    68  52  55 SW10      29.50F
LANSING        PTSUNNY   69  52  54 S24G36    29.44R
LAPEER         FAIR      68  56  64 SW17      29.50R
MASON          MOSUNNY   67  54  62 S9G23     29.46S
MONROE         MOSUNNY   70  54  57 S7        29.50F
MT. CLEMENS    PTSUNNY   67  58  74 S13       29.51R
PONTIAC        PTSUNNY   68  55  63 S12G21    29.49R
PORT HOPE        N/A     65  55  70 SE10      29.46R
PORT HURON     MOSUNNY   72  54  53 S16       29.53R
TRI CITIES     PTSUNNY   69  57  65 S18G26    29.44R
MIDLAND        PTSUNNY   69  54  57 S7        29.43R HAZE
TROY           MOSUNNY   71  56  57 S14G22    29.53R
SAGINAW HB     MOSUNNY   70  52  52 S16G25    29.44R
$$
MIZ043>046-050>051-056>058-064>065-071>073-077>080-271400-
SOUTHWEST LOWER MICHIGAN

CITY           SKY/WX    TMP DP  RH WIND       PRES   REMARKS
BATTLE CREEK   LGT RAIN  64  54  69 S26G40    29.42S
BENTON HARBOR  CLOUDY    63  53  70 S23G36    29.36R
BIG RAPIDS     CLOUDY    63  54  73 S17G25    29.35F
COLDWATER      CLOUDY    64  53  67 S15G28    29.46S
FREMONT        CLOUDY    61  57  87 S12G18    29.33S
HOLLAND        CLOUDY    63  55  75 S23G29    29.36S
GRAND RAPIDS   CLOUDY    64  56  75 S21G26    29.38S
IONIA          PTSUNNY   66  53  62 S21G29    29.41R
KALAMAZOO      CLOUDY    65  52  62 S24G38    29.41S
LUDINGTON      LGT RAIN  60  57  91 S25G32    29.29S
MARSHALL       CLOUDY    65  53  65 S16G30    29.45R
MOUNT PLEASANT PTSUNNY   66  54  63 S12       29.40R
MUSKEGON       CLOUDY    63  55  75 S23G31    29.32F
SOUTH HAVEN    CLOUDY    63  55  75 S16G30    29.36R
$$
MIZ016>042-271400-
NORTHERN LOWER MICHIGAN

CITY           SKY/WX    TMP DP  RH WIND       PRES   REMARKS
ALPENA         MOSUNNY   67  54  63 S20       29.41R
BEAVER ISLAND  CLOUDY    48  48  99 E8        29.30S FOG
BELLAIRE       PTSUNNY   67  57  69 S18G25    29.31S
CADILLAC       CLOUDY    63  56  79 S16G23    29.33F
CHARLEVOIX     CLOUDY    65  60  82 S14G22    29.34R
FRANKFORT      CLOUDY    61  57  87 S7        29.29S
GAYLORD        MOSUNNY   67  55  65 S18G29    29.36R
GRAYLING       MOSUNNY   66  56  70 S10G21    29.37F
HARBOR SPRINGS CLOUDY    62  58  87 S12G18    29.33R
HOUGHTON LAKE  PTSUNNY   66  56  70 S13       29.37F
MANISTEE       CLOUDY    61  58  90 S8G16     29.29S
OSCODA         MOSUNNY   65  52  62 S16G22    29.43R
PELLSTON       CLOUDY    57  54  89 S5        29.33R
ROGERS CITY    PTSUNNY   62  53  71 S14       29.40R
TRAVERSE CITY  CLOUDY    65  58  78 S6        29.27F
$$
MIZ007>008-015-271400-
EASTERN UPPER MICHIGAN

CITY           SKY/WX    TMP DP  RH WIND       PRES   REMARKS
KINROSS        CLOUDY    52  50  93 SE14      29.34S
MACKINAC ISLAN MOSUNNY   54  54 100 SE13G20   29.33R
NEWBERRY       FOG       44  44  97 N3        29.30S VSB 1/4
S. S. MARIE    CLOUDY    56  52  86 E12G18    29.34R
MUNISING         N/A     35  34  96 NW15      29.36S WCI  25
$$
MIZ004>006-011>014-085-271400-
CENTRAL UPPER MICHIGAN

CITY           SKY/WX    TMP DP  RH WIND       PRES   REMARKS
MANISTIQUE     LGT RAIN  36  36  98 N14       29.30S WCI  27
ESCANABA       LGT SNOW  35  34  96 N9        29.32F FOG     WCI  28
MENOMINEE      RAIN      38  36  92 N9        29.30F FOG     WCI  31
SAWYER-GWINN   CLOUDY    32  30  93 N9        29.35F FOG     WCI  24
$$
MIZ001>003-009>011-084-271400-
WESTERN UPPER MICHIGAN

CITY           SKY/WX    TMP DP  RH WIND       PRES   REMARKS
IRON MOUNTAIN  RAIN      34  30  85 N16       29.30F FOG     WCI  24
HOUGHTON       LGT SNOW  29  25  85 N14G22    29.40F VSB 3/4 WCI  18
IRONWOOD       CLOUDY    26  25  96 N9        29.47F WCI  17
$$

ABBREVIATIONS USED IN REMARKS
   TC - TEMPERATURE IN CELSIUS
  WCI - WIND CHILL INDEX
   HX - HEAT INDEX
  VSB - VISIBILITY





USA.gov is the U.S. government's official web portal to all federal, state and local government web resources and services.